Regional Weather Roundup
Issued by NWS

Home | Current Version | Previous Version | Graphics & Text | Print | Product List | Glossary Off
Versions: 1 2 3 4 5 6 7 8 9 10 11 12 13 14 15 16 17 18 19 20 21 22 23 24 25 26 27 28 29 30 31 32 33 34 35 36 37 38 39 40 41 42 43 44 45 46 47 48 49 50

000
ASUS43 KMPX 250201
RWRMN
WEATHER ROUNDUP FOR MINNESOTA
NATIONAL WEATHER SERVICE TWIN CITIES/CHANHASSEN MN
900 PM CDT THU JUL 24 2014


NOTE: "FAIR" INDICATES FEW OR NO CLOUDS BELOW 12,000 FEET WITH NO
SIGNIFICANT WEATHER AND/OR OBSTRUCTIONS TO VISIBILITY. N/A MEANS
CURRENT SKY AND/OR WEATHER CONDITIONS ARE NOT AVAILABLE.

MNZ060>063-068>070-250300-
   Twin Cities Metro

CITY           SKY/WX    TMP DP  RH WIND       PRES   REMARKS
TWIN CITIES    PTCLDY    76  59  55 SW6       29.92S
ST PAUL        CLOUDY    74  60  61 S8        29.92S
CRYSTAL        PTCLDY    75  59  57 S6        29.91S
EDEN PRAIRIE   CLEAR     71  60  68 SW5       29.92R
$$
MNZ001>005-007-008-013>017-022>024-027-028-250300-
   Northwest Minnesota

CITY           SKY/WX    TMP DP  RH WIND       PRES   REMARKS
THIEF RVR FALL PTCLDY    72  59  64 SE14      29.80F
CROOKSTON      MOCLDY    70  61  73 SE16      29.75F
FOSSTON        PTCLDY    70  59  68 SE6       29.90F
DETROIT LAKES  MOCLDY    72  61  68 CALM      29.95R
MOORHEAD       LGT RAIN  72  66  83 SE13      29.85F
PARK RAPIDS    PTCLDY    71  59  65 SE8       29.92F
$$
MNZ006-009>011-018-025>026-250300-
   North Central Minnesota

CITY           SKY/WX    TMP DP  RH WIND       PRES   REMARKS
BAUDETTE       CLOUDY    68  60  75 CALM      29.90F
INTL FALLS     MOCLDY    64  59  83 CALM      29.92F
LONGVILLE      PTCLDY    66  63  88 CALM      29.95R
GRAND RAPIDS   CLOUDY    64  61  88 CALM      29.95F
$$
MNZ012-019>021-037-250300-
   Northeast Minnesota

CITY           SKY/WX    TMP DP  RH WIND       PRES   REMARKS
DULUTH         MOCLDY    69  59  70 CALM      29.97S
HIBBING        CLOUDY    65  59  81 S3        29.95F
GRAND MARAIS     N/A     55  50  83 CALM      29.96R
$$
MNZ029>031-032-039>041-046>048-054>057-064-250300-
   West Central Minnesota

CITY           SKY/WX    TMP DP  RH WIND       PRES   REMARKS
WHEATON        PTCLDY    66  63  88 E7        29.87S
ALEXANDRIA     CLOUDY    69  62  78 E6        29.94R
APPLETON       PTCLDY    70  59  68 S8        29.86R
WILLMAR        FAIR      70  61  73 SE5       29.91R
$$
MNZ033>034-036-042>043-049>051-058-059-250300-
   Central Minnesota

CITY           SKY/WX    TMP DP  RH WIND       PRES   REMARKS
ST CLOUD       CLEAR     71  62  73 S3        29.93R
BRAINERD       CLOUDY    71  60  68 CALM      29.95R
LITTLE FALLS   CLOUDY    70  61  73 CALM      29.94R
BUFFALO        CLEAR     72  60  65 S5        29.93F
MAPLE LAKE     CLEAR     71  63  75 CALM      29.93F
$$
MNZ037-044-045-052-053-250300-
   East Central Minnesota

CITY           SKY/WX    TMP DP  RH WIND       PRES   REMARKS
CAMBRIDGE      PTCLDY    75  61  60 CALM      29.91S
RUSH CITY      CLEAR     70  60  70 CALM      29.93R
MOOSE LAKE     PTCLDY    68  59  73 CALM      29.94R
CLOQUET        MOCLDY    70  55  60 CALM      29.98R
$$
MNZ071>073-080-081-089-090-097-098-250300-
   Southwest Minnesota

CITY           SKY/WX    TMP DP  RH WIND       PRES   REMARKS
MARSHALL       CLOUDY    68  57  68 S7        29.87S
REDWOOD FALLS  CLOUDY    68  61  78 S10       29.89R
PIPESTONE      CLEAR     64  61  88 S9        29.87F
WORTHINGTON    CLEAR     64  59  82 S9G17     29.91R
$$
MNZ065>067-074>077-082>085-091>093-250300-
   South Central Minnesota

CITY           SKY/WX    TMP DP  RH WIND       PRES   REMARKS
MANKATO        CLEAR     68  55  64 S6        29.93R
ST JAMES       CLEAR     66  61  82 SE8       29.90F
FAIRMONT       CLEAR     64  55  72 S8        29.91S
OWATONNA       CLEAR     70  59  68 S3        29.94R
WASECA         CLEAR     66  54  63 S5        29.94R
$$
MNZ078>079-086>088-094>096-250300-
   Southeast Minnesota

CITY           SKY/WX    TMP DP  RH WIND       PRES   REMARKS
ROCHESTER      PTCLDY    68  58  70 SE5       29.96R
RED WING       PTCLDY    73  57  56 S3        29.92S
WINONA         PTCLDY    73  61  64 S3        29.94S
AUSTIN         CLEAR     68  59  73 S12G18    29.91F
$$
ABBREVIATIONS USED IN REMARKS
   TC - TEMPERATURES IN CELSIUS
  WCI - WIND CHILL INDEX
   HX - HEAT INDEX
  VSB - VISIBILITY
$$


USA.gov is the U.S. government's official web portal to all federal, state and local government web resources and services.